Location: Namasale
(1.5000°N, 32.6167°E)
Time: 19:17:26
(UTC+00:00)

Vanguard 1 Rocket - Pass Details

Date: 27 April 2021
Orbit: 652 x 4224 km, 34.3° (Epoch: 10 May)

Event Time Altitude Azimuth Distance (km) Brightness Sun altitude
Rises 09:04:27 0° 279° (W) 6,360 11.6 73.7°
Maximum altitude 09:16:05 10° 322° (NW) 3,921 10.9 75.4°
Drops below altitude 10° 09:16:08 10° 323° (NW) 3,913 10.9 75.4°
Sets 09:23:50 0° 11° (NNE) 3,897 10.8 76.3°
